This is the latest recevied weather packets stored in our database for station/object DF7PN-WX. If no packets are shown the sender has not sent any weather packets the latest 10 day(s).
| Time | Temp. | Humidity | Pressure | Rain* | Wind** | Luminosity | Snow |
|---|---|---|---|---|---|---|---|
| 1778064996 | 18.33° C | 63% | 1006.7 hPa | - | - | - | - |
| 1778064696 | 18.89° C | 62% | 1006.7 hPa | - | - | - | - |
| 1778064396 | 18.89° C | 61% | 1006.7 hPa | - | - | - | - |
| 1778064096 | 18.89° C | 64% | 1006.7 hPa | - | - | - | - |
| 1778063796 | 18.33° C | 64% | 1006.7 hPa | - | - | - | - |
| 1778063496 | 18.33° C | 66% | 1006.8 hPa | - | - | - | - |
| 1778063196 | 17.78° C | 69% | 1006.8 hPa | - | - | - | - |
| 1778062896 | 17.78° C | 67% | 1006.8 hPa | - | - | - | - |
| 1778062595 | 18.33° C | 64% | 1006.8 hPa | - | - | - | - |
| 1778062295 | 18.89° C | 67% | 1006.8 hPa | - | - | - | - |
| 1778061995 | 18.33° C | 64% | 1006.8 hPa | - | - | - | - |
| 1778061695 | 18.89° C | 66% | 1006.7 hPa | - | - | - | - |
| 1778061395 | 17.78° C | 68% | 1006.7 hPa | - | - | - | - |
| 1778061095 | 17.78° C | 70% | 1006.7 hPa | - | - | - | - |
| 1778060795 | 17.78° C | 70% | 1006.6 hPa | - | - | - | - |
| 1778060495 | 17.78° C | 73% | 1006.5 hPa | - | - | - | - |
| 1778060195 | 17.22° C | 73% | 1006.6 hPa | - | - | - | - |
| 1778059895 | 17.22° C | 73% | 1006.7 hPa | - | - | - | - |
| 1778059595 | 16.67° C | 76% | 1006.6 hPa | - | - | - | - |
| 1778059295 | 17.22° C | 78% | 1006.5 hPa | - | - | - | - |
| 1778058995 | 16.67° C | 76% | 1006.6 hPa | - | - | - | - |
| 1778058695 | 17.22° C | 72% | 1006.7 hPa | - | - | - | - |
| 1778058395 | 17.22° C | 71% | 1006.7 hPa | - | - | - | - |
| 1778058094 | 17.22° C | 72% | 1006.7 hPa | - | - | - | - |
| 1778057794 | 17.22° C | 73% | 1006.7 hPa | - | - | - | - |
* Rain since midnight (hover to see other rain measurements)
** Current wind speed in m/s (hover to see current wind gust speed)